Terminal Aerodrome Forecast
Issued by NWS Duluth, MN

Home | Current Version | Previous Version | Text Only | Print | Product List | Glossary On
Versions: 1 2 3 4 5 6 7 8 9 10 11 12 13 14 15 16 17
000
FTUS43 KDLH 241600 AAA
TAFDLH
TAF AMD
KDLH 241600Z 2416/2512 11009KT P6SM -RASN BKN035 OVC045
     FM241800 11012KT P6SM -RA OVC025
     FM250200 09011KT 2SM -DZ BR OVC007=

USA.gov is the U.S. government's official web portal to all federal, state and local government web resources and services.